EW4394 Weather Reports


time (UTC)temp
F
wind
direction
speed
knots
gust
knots
rain 1hr
in
rain 24hr
in
rain mn
in
humidity
%
barometer
mb
20260503212833 65 0.0 0.0 0.00 0.00 0.00 37 1005.8
20260503211827 65 0.0 0.0 0.00 0.00 0.00 37 1005.8
20260503210820 65 0.0 0.0 0.00 0.00 0.00 37 1005.8
20260503205814 64 0.0 0.0 0.00 0.00 0.00 38 1005.8
20260503204808 65 0.0 0.0 0.00 0.00 0.00 37 1005.8
20260503203801 64 0.0 0.0 0.00 0.00 0.00 38 1005.8
20260503202755 64 0.0 0.0 0.00 0.00 0.00 39 1005.8
20260503201748 63 0.0 0.0 0.00 0.00 0.00 40 1005.8
20260503200742 62 0.0 0.0 0.00 0.00 0.00 41 1009.1
20260503195736 61 0.0 0.0 0.00 0.00 0.00 48 1009.1
20260503194730 61 0.0 0.0 0.00 0.00 0.00 48 1009.1
20260503193723 60 0.0 0.0 0.00 0.00 0.00 47 1009.1
20260503192717 59 0.0 0.0 0.00 0.00 0.00 47 1009.1
20260503191707 58 0.0 0.0 0.00 0.00 0.00 49 1009.1
20260503190701 57 0.0 0.0 0.00 0.00 0.00 51 1009.1
20260503185655 57 0.0 0.0 0.00 0.00 0.00 52 1009.1
20260503184647 56 0.0 0.0 0.00 0.00 0.00 53 1009.1
20260503183641 56 0.0 0.0 0.00 0.00 0.00 54 1009.1
20260503182635 56 0.0 0.0 0.00 0.00 0.00 55 1009.1
20260503181629 55 0.0 0.0 0.00 0.00 0.00 55 1009.1
20260503180623 55 0.0 0.0 0.00 0.00 0.00 55 1009.1
20260503175617 55 0.0 0.0 0.00 0.00 0.00 56 1009.1
20260503174610 55 0.0 0.0 0.00 0.00 0.00 58 1012.5
20260503173604 55 0.0 0.0 0.00 0.00 0.00 59 1012.5
20260503172558 54 0.0 0.0 0.00 0.00 0.00 60 1012.5
20260503171552 54 0.0 0.0 0.00 0.00 0.00 61 1012.5
20260503170546 53 0.0 0.0 0.00 0.00 0.00 62 1012.5
20260503150432 55 0.0 0.0 0.00 0.00 0.00 50 1012.5
20260503131324 53 0.0 0.0 0.00 0.00 0.00 48 1012.5
20260503130318 53 0.0 0.0 0.00 0.00 0.00 48 1012.5
20260503110204 50 0.0 0.0 0.00 0.00 0.00 48 1012.5
20260503100127 50 0.0 0.0 0.00 0.00 0.00 47 1012.5
20260503081020 51 0.0 0.0 0.00 0.00 0.00 42 1012.5
20260503071949 52 0.0 0.0 0.00 0.00 0.00 41 1012.5
20260503070943 52 0.0 0.0 0.00 0.00 0.00 40 1012.5
20260503054854 53 0.0 0.0 0.00 0.00 0.00 40 1015.9
20260503053847 53 0.0 0.0 0.00 0.00 0.00 39 1015.9
20260503052842 53 0.0 0.0 0.00 0.00 0.00 39 1015.9
20260503051836 53 0.0 0.0 0.00 0.00 0.00 39 1015.9
20260503050830 53 0.0 0.0 0.00 0.00 0.00 39 1015.9
20260503045823 53 0.0 0.0 0.00 0.00 0.00 38 1015.9
20260503044817 53 0.0 0.0 0.00 0.00 0.00 38 1015.9
20260503043811 53 0.0 0.0 0.00 0.00 0.00 39 1015.9
20260503042805 54 0.0 0.0 0.00 0.00 0.00 38 1015.9
20260503041758 54 0.0 0.0 0.00 0.00 0.00 38 1015.9
20260503040752 54 0.0 0.0 0.00 0.00 0.00 38 1015.9
20260503035746 54 0.0 0.0 0.00 0.00 0.00 38 1015.9
20260503034740 54 0.0 0.0 0.00 0.00 0.00 39 1015.9
20260503033733 54 0.0 0.0 0.00 0.00 0.00 39 1015.9
20260503032728 54 0.0 0.0 0.00 0.00 0.00 39 1015.9
20260503031721 54 0.0 0.0 0.00 0.00 0.00 39 1015.9
20260503030715 55 0.0 0.0 0.00 0.00 0.00 39 1015.9
20260503025709 55 0.0 0.0 0.00 0.00 0.00 40 1015.9
20260503024703 55 0.0 0.0 0.00 0.00 0.00 40 1015.9
20260503023657 55 0.0 0.0 0.00 0.00 0.00 40 1015.9
20260503022651 55 0.0 0.0 0.00 0.00 0.00 40 1015.9
20260503021645 55 0.0 0.0 0.00 0.00 0.00 41 1015.9
20260503020639 54 0.0 0.0 0.00 0.00 0.00 42 1015.9
20260503015633 54 0.0 0.0 0.00 0.00 0.00 46 1015.9
20260503014627 54 0.0 0.0 0.00 0.00 0.00 54 1015.9
20260503013621 53 0.0 0.0 0.00 0.00 0.00 53 1015.9
20260503012615 53 0.0 0.0 0.00 0.00 0.00 60 1015.9
20260503011609 52 0.0 0.0 0.00 0.00 0.00 62 1015.9
20260503010603 52 0.0 0.0 0.00 0.00 0.00 63 1015.9
20260503005556 51 0.0 0.0 0.00 0.00 0.00 64 1015.9
20260503004550 51 0.0 0.0 0.00 0.00 0.00 65 1015.9
20260503003545 51 0.0 0.0 0.00 0.00 0.00 64 1015.9
20260503002539 51 0.0 0.0 0.00 0.00 0.00 62 1015.9
20260503001533 51 0.0 0.0 0.00 0.00 0.00 61 1015.9
20260503000527 51 0.0 0.0 0.00 0.00 0.00 59 1015.9
20260502235520 51 0.0 0.0 0.00 0.00 0.00 57 1015.9
20260502234514 51 0.0 0.0 0.00 0.00 0.00 59 1015.9
20260502233508 50 0.0 0.0 0.00 0.00 0.00 60 1015.9
20260502232502 50 0.0 0.0 0.00 0.00 0.00 60 1015.9
20260502231456 50 0.0 0.0 0.00 0.00 0.00 61 1015.9
20260502230450 50 0.0 0.0 0.00 0.00 0.00 60 1015.9
20260502225444 50 0.0 0.0 0.00 0.00 0.00 58 1015.9
20260502224438 50 0.0 0.0 0.00 0.00 0.00 58 1015.9
20260502223431 50 0.0 0.0 0.00 0.00 0.00 58 1015.9
20260502222425 50 0.0 0.0 0.00 0.00 0.00 56 1015.9
20260502221419 50 0.0 0.0 0.00 0.00 0.00 55 1015.9
20260502220414 50 0.0 0.0 0.00 0.00 0.00 55 1015.9
20260502215407 50 0.0 0.0 0.00 0.00 0.00 54 1015.9
20260502214401 49 0.0 0.0 0.00 0.00 0.00 54 1015.9